• In Belarus
  • List of Countries
  • For 7 days
  • Water Temperature
  • Satellite Maps
  • Weather Map
  • Weather Widgets
  • user-avatar
    Login

    Hourly Weather Capinota

    Today, 15 August, Wednesday

    Time Temperature Precipitation Wind Pressure Humidity
    00:00 +13°C° 0 mm 2 mps 559 mmHg 74%
    01:00 +12°C° 0 mm 2 mps 559 mmHg 75%
    02:00 +12°C° 0 mm 1 mps 559 mmHg 75%
    03:00 +12°C° 0 mm 1 mps 559 mmHg 75%
    04:00 +11°C° 0 mm 1 mps 559 mmHg 75%
    05:00 +11°C° 0 mm 1 mps 559 mmHg 75%
    06:00 +11°C° 0 mm 1 mps 559 mmHg 70%
    07:00 +12°C° 0 mm 1 mps 560 mmHg 66%
    08:00 +12°C° 0 mm 1 mps 560 mmHg 62%
    09:00 +14°C° 0 mm 1 mps 561 mmHg 51%
    10:00 +16°C° 0 mm 2 mps 562 mmHg 41%
    11:00 +17°C° 0 mm 2 mps 563 mmHg 31%
    12:00 +19°C° 0 mm 2 mps 563 mmHg 28%
    13:00 +20°C° 0 mm 2 mps 563 mmHg 24%
    14:00 +21°C° 0 mm 3 mps 562 mmHg 21%
    15:00 +20°C° 0 mm 3 mps 562 mmHg 24%
    16:00 +20°C° 0 mm 4 mps 561 mmHg 27%
    17:00 +19°C° 0 mm 4 mps 561 mmHg 30%
    18:00 +18°C° 0 mm 4 mps 561 mmHg 40%
    19:00 +16°C° 0 mm 3 mps 560 mmHg 49%
    20:00 +14°C° 0 mm 3 mps 560 mmHg 59%
    21:00 +14°C° 0 mm 2 mps 560 mmHg 64%
    22:00 +13°C° 0 mm 2 mps 560 mmHg 68%
    23:00 +13°C° 0 mm 1 mps 560 mmHg 73%

    Tomorrow, 16 August, Thursday

    Time Temperature Precipitation Wind Pressure Humidity
    00:00 +12°C° 0 mm 1 mps 560 mmHg 73%
    01:00 +12°C° 0 mm 1 mps 560 mmHg 73%
    02:00 +11°C° 0 mm 1 mps 560 mmHg 74%
    03:00 +11°C° 0 mm 1 mps 560 mmHg 74%
    04:00 +10°C° 0 mm 1 mps 559 mmHg 73%
    05:00 +10°C° 0 mm 1 mps 559 mmHg 73%
    06:00 +11°C° 0 mm 1 mps 560 mmHg 65%
    07:00 +12°C° 0 mm 1 mps 561 mmHg 57%
    08:00 +13°C° 0 mm 1 mps 561 mmHg 49%
    09:00 +15°C° 0 mm 1 mps 562 mmHg 39%
    10:00 +17°C° 0 mm 2 mps 563 mmHg 28%
    11:00 +19°C° 0 mm 2 mps 564 mmHg 18%
    12:00 +20°C° 0 mm 2 mps 564 mmHg 16%
    13:00 +21°C° 0 mm 2 mps 564 mmHg 14%
    14:00 +22°C° 0 mm 3 mps 563 mmHg 13%
    15:00 +21°C° 0 mm 3 mps 563 mmHg 15%
    16:00 +21°C° 0 mm 4 mps 562 mmHg 17%
    17:00 +21°C° 0 mm 4 mps 562 mmHg 20%
    18:00 +19°C° 0 mm 4 mps 562 mmHg 31%
    19:00 +17°C° 0 mm 4 mps 562 mmHg 42%
    20:00 +14°C° 0 mm 3 mps 561 mmHg 53%
    21:00 +13°C° 0 mm 3 mps 561 mmHg 58%
    22:00 +14°C° 0 mm 2 mps 562 mmHg 63%
    23:00 +13°C° 0 mm 2 mps 562 mmHg 68%

    Day after tomorrow, 17 August, Friday

    Time Temperature Precipitation Wind Pressure Humidity
    00:00 +13°C° 0 mm 1 mps 561 mmHg 68%
    01:00 +12°C° 0 mm 1 mps 561 mmHg 69%
    02:00 +12°C° 0 mm 1 mps 560 mmHg 69%
    03:00 +11°C° 0 mm 1 mps 560 mmHg 69%
    04:00 +11°C° 0 mm 1 mps 560 mmHg 68%
    05:00 +9°C° 0 mm 2 mps 559 mmHg 68%
    06:00 +10°C° 0 mm 2 mps 560 mmHg 61%
    07:00 +12°C° 0 mm 2 mps 561 mmHg 54%
    08:00 +13°C° 0 mm 2 mps 561 mmHg 47%
    09:00 +15°C° 0 mm 2 mps 562 mmHg 37%
    10:00 +17°C° 0 mm 2 mps 563 mmHg 27%
    11:00 +19°C° 0 mm 2 mps 564 mmHg 17%
    12:00 +20°C° 0 mm 3 mps 564 mmHg 16%
    13:00 +21°C° 0 mm 3 mps 563 mmHg 14%
    14:00 +22°C° 0 mm 3 mps 563 mmHg 13%
    15:00 +22°C° 0 mm 3 mps 563 mmHg 15%
    16:00 +22°C° 0 mm 4 mps 562 mmHg 17%
    17:00 +21°C° 0 mm 4 mps 562 mmHg 19%
    18:00 +19°C° 0 mm 4 mps 561 mmHg 29%
    19:00 +18°C° 0 mm 4 mps 561 mmHg 38%
    20:00 +16°C° 0 mm 3 mps 560 mmHg 48%
    21:00 +14°C° 0 mm 3 mps 560 mmHg 53%
    22:00 +14°C° 0 mm 2 mps 560 mmHg 57%
    23:00 +14°C° 0 mm 2 mps 560 mmHg 62%

    18 August, Saturday

    Time Temperature Precipitation Wind Pressure Humidity
    00:00 +13°C° 0 mm 2 mps 560 mmHg 63%
    01:00 +12°C° 0 mm 2 mps 559 mmHg 64%
    02:00 +12°C° 0 mm 2 mps 559 mmHg 65%
    03:00 +10°C° 0 mm 2 mps 558 mmHg 63%
    04:00 +10°C° 0 mm 2 mps 558 mmHg 61%
    05:00 +9°C° 0 mm 2 mps 558 mmHg 59%
    06:00 +12°C° 0 mm 2 mps 559 mmHg 51%
    07:00 +13°C° 0 mm 2 mps 560 mmHg 43%
    08:00 +14°C° 0 mm 2 mps 561 mmHg 34%
    09:00 +16°C° 0 mm 2 mps 561 mmHg 27%
    10:00 +18°C° 0 mm 2 mps 562 mmHg 20%
    11:00 +20°C° 0 mm 2 mps 563 mmHg 14%
    12:00 +21°C° 0 mm 2 mps 563 mmHg 13%
    13:00 +22°C° 0 mm 3 mps 562 mmHg 13%
    14:00 +24°C° 0 mm 3 mps 562 mmHg 12%
    15:00 +24°C° 0 mm 3 mps 561 mmHg 15%
    16:00 +23°C° 0 mm 4 mps 561 mmHg 17%
    17:00 +22°C° 0 mm 4 mps 560 mmHg 20%
    18:00 +20°C° 0 mm 4 mps 560 mmHg 29%
    19:00 +18°C° 0 mm 3 mps 560 mmHg 38%
    20:00 +17°C° 0 mm 3 mps 559 mmHg 47%
    21:00 +16°C° 0 mm 3 mps 559 mmHg 52%
    22:00 +15°C° 0 mm 2 mps 559 mmHg 57%
    23:00 +15°C° 0 mm 2 mps 559 mmHg 61%

    19 August, Sunday

    Time Temperature Precipitation Wind Pressure Humidity
    00:00 +14°C° 0 mm 2 mps 559 mmHg 63%
    01:00 +13°C° 0 mm 2 mps 559 mmHg 65%
    02:00 +13°C° 0 mm 2 mps 558 mmHg 68%
    03:00 +12°C° 0 mm 1 mps 558 mmHg 68%
    04:00 +12°C° 0 mm 1 mps 558 mmHg 69%
    05:00 +12°C° 0 mm 1 mps 558 mmHg 70%
    06:00 +13°C° 0 mm 1 mps 559 mmHg 65%
    07:00 +14°C° 0 mm 1 mps 560 mmHg 60%
    08:00 +15°C° 0 mm 1 mps 561 mmHg 55%
    09:00 +16°C° 0 mm 1 mps 562 mmHg 49%
    10:00 +17°C° 0 mm 2 mps 562 mmHg 44%
    11:00 +19°C° 0 mm 2 mps 563 mmHg 38%
    12:00 +19°C° 0.1 mm 2 mps 562 mmHg 36%
    13:00 +20°C° 0.1 mm 3 mps 562 mmHg 33%
    14:00 +21°C° 0.1 mm 3 mps 562 mmHg 31%
    15:00 +21°C° 0.2 mm 4 mps 561 mmHg 34%
    16:00 +20°C° 0.2 mm 5 mps 561 mmHg 37%
    17:00 +20°C° 0.2 mm 5 mps 561 mmHg 40%
    18:00 +17°C° 0.4 mm 5 mps 561 mmHg 50%
    19:00 +17°C° 0.4 mm 4 mps 561 mmHg 59%
    20:00 +14°C° 0.4 mm 4 mps 560 mmHg 68%
    21:00 +14°C° 0.2 mm 3 mps 561 mmHg 69%
    22:00 +14°C° 0.2 mm 3 mps 561 mmHg 71%
    23:00 +13°C° 0.2 mm 3 mps 561 mmHg 72%

    20 August, Monday

    Time Temperature Precipitation Wind Pressure Humidity
    00:00 +13°C° 0.2 mm 3 mps 561 mmHg 73%
    01:00 +14°C° 0.2 mm 2 mps 560 mmHg 73%
    02:00 +13°C° 0.2 mm 2 mps 560 mmHg 73%
    03:00 +13°C° 0.2 mm 2 mps 560 mmHg 73%
    04:00 +13°C° 0.2 mm 2 mps 560 mmHg 74%
    05:00 +13°C° 0.2 mm 1 mps 560 mmHg 74%
    06:00 +13°C° 0.3 mm 2 mps 560 mmHg 73%
    07:00 +13°C° 0.3 mm 2 mps 561 mmHg 73%
    08:00 +13°C° 0.3 mm 2 mps 562 mmHg 72%
    09:00 +14°C° 0.4 mm 2 mps 562 mmHg 68%
    10:00 +15°C° 0.4 mm 2 mps 562 mmHg 65%
    11:00 +15°C° 0.4 mm 2 mps 563 mmHg 61%
    12:00 +16°C° 0.2 mm 2 mps 562 mmHg 58%
    13:00 +16°C° 0.2 mm 2 mps 562 mmHg 55%
    14:00 +17°C° 0.2 mm 3 mps 561 mmHg 52%
    15:00 +17°C° 0.1 mm 3 mps 561 mmHg 51%
    16:00 +17°C° 0.1 mm 4 mps 561 mmHg 51%
    17:00 +17°C° 0.1 mm 4 mps 560 mmHg 50%
    18:00 +15°C° 0.1 mm 4 mps 560 mmHg 55%
    19:00 +14°C° 0.1 mm 3 mps 560 mmHg 60%
    20:00 +13°C° 0.1 mm 3 mps 560 mmHg 65%
    21:00 +14°C° 0 mm 2 mps 560 mmHg 68%
    22:00 +13°C° 0 mm 2 mps 560 mmHg 70%
    23:00 +13°C° 0 mm 2 mps 560 mmHg 73%
    Show more